Temp
39 32 24 28 30 34 30 28 25 30 37 34 33 33 35 39 39 37 37 38 40 41 45 47 48 48 48 48 48 48 48 49 48 47 46 45 45 48 50 55 55 55 62 65
31 26 31 36 35 32 30 27 24 30 36 34 33 31 36 37 37 38 38 37 38 40 42 45 46 46 46 46 47 47 47 48 48 47 46 46 46 47 49 50 52 54 55 57
27 29 37 34 31 30 29 26 26 26 32 34 31 28 31 36 38 39 39 40 39 39 39 41 43 43 44 43 44 46 46 47 48 47 46 46 46 46 46 46 47 50 53 55
28 33 32 31 29 30 26 30 29 29 23 15 30 15 25 30 31 34 36 35 36 38 39 41 41 42 42 43 44 44 45 45 47 46 44 42 41 40 44 45 47 47 50 51
27 28 28 28 30 31 29 30 29 30 23 19 23 12 21 29 26 30 32 35 35 37 38 38 39 41 42 41 41 43 44 44 45 44 43 42 41 42 43 45 44 45 47 50
29 34 30 29 32 31 33 30 29 27 21 6 17 16 17 21 25 27 30 33 34 36 36 38 39 41 40 41 41 42 42 42 43 43 42 41 40 40 40 41 42 43 44 46
28 27 30 31 28 31 28 21 0 5 2 7 22 14 19 24 28 29 28 29 32 33 34 35 35 36 37 38 38 41 41 41 42 41 41 41 40 40 39 39 40 41 42 42
14 17 26 32 28 23 24 18 5 -1 2 8 20 9 19 29 31 31 31 30 32 33 34 35 36 35 36 37 37 37 38 38 40 41 40 40 40 39 40 40 40 41 41 42
10 19 28 32 30 27 22 16 24 1 -9 -0 13 22 28 30 29 28 29 30 30 31 33 34 35 35 35 35 36 36 36 37 38 39 39 40 40 39 38 39 39 39 41 43
18 11 27 29 31 30 27 28 10 2 -6 -8 7 10 14 24 27 29 26 28 30 32 33 33 33 34 35 34 34 35 35 35 36 37 39 39 38 39 39 38 38 38 39 41
21 13 19 25 22 19 20 19 16 9 7 -5 -5 9 15 23 27 27 25 30 30 31 32 32 33 34 34 34 33 33 34 33 34 36 37 37 37 37 38 37 37 37 38 38
24 8 3 16 22 24 24 18 16 1 3 6 7 7 28 26 27 29 29 33 34 34 32 31 33 33 32 32 32 33 33 32 34 33 35 35 36 36 36 36 36 37 36 37
20 7 -3 8 17 23 17 23 21 10 5 -1 -3 6 27 28 28 32 30 31 33 34 32 32 32 32 32 32 32 32 32 32 33 33 33 34 34 34 34 34 35 35 35 35
26 10 7 6 10 13 11 15 14 7 -6 5 8 14 24 27 27 29 30 31 32 32 31 31 30 31 31 32 32 32 32 32 32 32 32 32 32 33 33 33 33 32 33 33
18 2 8 11 15 14 16 17 18 11 13 3 16 15 21 25 26 29 31 32 32 31 31 31 30 30 31 31 31 32 32 32 32 30 31 31 32 32 31 31 31 31 31 32
21 2 6 2 11 15 14 18 18 19 19 16 16 15 26 29 29 27 30 30 29 30 31 31 33 33 33 34 32 32 31 31 31 29 30 31 31 30 30 29 28 29 29 30
12 4 -3 -5 6 2 2 9 18 18 18 15 9 21 25 23 27 29 25 28 29 29 29 30 32 32 33 33 33 31 30 31 29 29 30 30 29 27 27 28 28 27 26 28
5 5 1 -4 -5 -10 17 20 21 20 22 22 23 25 27 28 29 29 29 27 30 26 29 31 30 31 31 32 31 31 30 29 28 27 28 27 26 24 26 27 25 25 26 27
20 13 -1 -5 -13 6 16 20 17 15 17 25 24 26 28 28 23 25 30 30 29 25 27 29 31 31 29 29 31 30 28 26 23 21 21 23 23 23 25 22 22 24 25 26
15 17 13 -9 -8 -10 13 20 25 23 12 25 27 27 26 25 17 24 31 31 31 29 26 27 30 30 28 27 27 26 25 22 19 20 21 21 21 22 19 20 20 23 25 27
6 12 11 9 5 4 19 24 24 7 18 28 27 27 27 23 28 32 31 30 31 26 26 27 24 24 25 25 25 20 17 16 19 19 19 19 19 17 18 19 21 22 23 24
4 1 -1 -1 -4 0 24 21 17 27 28 30 28 28 28 29 30 30 30 31 32 26 26 25 21 21 22 24 24 17 14 16 17 17 16 15 15 16 18 18 19 19 22 23
7 14 8 11 9 25 25 27 30 31 30 31 27 31 28 28 29 32 30 29 30 28 25 20 15 17 17 16 20 17 15 15 15 13 11 12 14 16 18 16 16 17 19 21
18 23 15 17 26 25 27 29 30 31 30 32 33 33 33 30 32 32 31 30 29 28 26 20 20 16 14 13 15 10 12 14 12 9 10 12 14 14 15 16 17 16 18 19
22 21 20 21 27 30 31 32 34 35 35 33 34 33 32 32 31 30 30 29 26 25 23 21 19 18 15 15 13 10 12 11 9 9 10 11 13 12 13 14 15 18 20 21
27 26 21 21 31 30 31 36 35 31 32 32 30 30 31 30 30 29 26 25 22 19 18 16 15 12 10 10 8 9 7 6 4 6 8 8 9 10 11 12 13 20 22 25
MSLP
1027.62 1028.38 1030.49 1030.65 1030.12 1029.98 1030.09 1030.34 1030.38 1030.26 1030.27 1030.67 1031.34 1032.00 1032.41 1032.38 1032.30 1032.47 1032.56 1032.45 1032.11 1031.99 1031.89 1031.42 1030.88 1030.25 1029.74 1029.28 1028.63 1028.07 1027.48 1026.97 1026.11 1025.24 1024.51 1023.59 1022.90 1022.11 1021.40 1020.64 1020.14 1019.31 1018.27 1016.93
1029.56 1030.80 1031.96 1031.47 1031.16 1031.03 1031.19 1031.42 1031.84 1031.47 1031.12 1031.42 1032.41 1032.81 1033.04 1033.04 1033.06 1033.06 1033.11 1032.98 1032.75 1032.57 1032.16 1031.78 1031.31 1030.91 1030.49 1030.07 1029.66 1029.16 1028.63 1027.88 1027.21 1026.74 1026.23 1025.64 1024.44 1023.24 1022.51 1021.90 1020.85 1020.16 1019.29 1018.34
1031.36 1033.20 1032.53 1032.11 1032.27 1032.27 1032.41 1032.63 1032.77 1032.74 1032.54 1032.76 1033.09 1033.85 1033.85 1033.76 1033.61 1033.56 1033.58 1033.48 1033.27 1033.07 1032.76 1032.38 1031.97 1031.63 1031.15 1030.71 1030.39 1029.92 1029.51 1028.85 1028.21 1027.64 1026.87 1025.89 1025.00 1023.80 1022.70 1021.76 1021.03 1020.41 1019.34 1018.49
1033.13 1033.71 1033.26 1033.14 1033.16 1033.30 1032.98 1033.14 1033.31 1033.33 1033.55 1033.91 1033.84 1035.03 1034.64 1034.43 1034.29 1034.14 1034.11 1033.98 1033.81 1033.58 1033.35 1032.96 1032.60 1032.09 1031.78 1031.46 1031.03 1030.50 1030.00 1029.37 1028.64 1028.07 1027.41 1026.72 1026.24 1025.32 1024.65 1023.88 1022.67 1021.38 1020.54 1019.09
1034.73 1034.44 1034.01 1033.92 1034.05 1033.71 1033.44 1033.38 1033.74 1034.10 1034.69 1035.13 1035.09 1035.28 1034.94 1034.70 1034.71 1034.58 1034.58 1034.55 1034.36 1034.08 1033.88 1033.41 1032.97 1032.66 1032.25 1031.80 1031.40 1030.91 1030.40 1029.74 1029.13 1028.54 1028.08 1027.51 1026.82 1026.39 1025.48 1024.31 1023.21 1022.18 1021.09 1020.00
1035.07 1034.72 1034.84 1034.85 1034.39 1034.23 1033.81 1034.03 1034.69 1035.53 1036.36 1037.18 1036.69 1036.16 1035.67 1035.17 1034.86 1034.94 1035.05 1034.98 1034.68 1034.38 1034.09 1033.59 1033.18 1032.83 1032.45 1031.86 1031.39 1030.97 1030.59 1030.08 1029.43 1028.92 1028.49 1027.96 1027.34 1026.57 1025.71 1024.64 1023.62 1022.67 1021.59 1020.62
1036.09 1035.96 1035.66 1035.36 1035.00 1034.50 1034.83 1035.65 1037.35 1038.79 1039.51 1039.10 1037.52 1036.76 1035.11 1035.00 1034.79 1034.99 1035.08 1034.94 1034.72 1034.36 1034.08 1033.66 1033.25 1033.01 1032.61 1032.15 1031.72 1031.22 1030.72 1030.22 1029.74 1029.27 1028.75 1028.33 1027.83 1027.15 1026.42 1025.60 1024.65 1023.37 1022.16 1021.27
1038.40 1037.08 1036.95 1036.60 1036.68 1036.88 1037.10 1038.11 1039.86 1041.71 1042.61 1041.30 1038.73 1037.10 1035.49 1034.82 1034.87 1034.82 1034.81 1034.77 1034.66 1034.53 1034.31 1033.96 1033.34 1032.96 1032.69 1032.39 1032.06 1031.58 1031.05 1030.56 1029.96 1029.42 1028.96 1028.47 1027.96 1027.39 1026.64 1025.92 1025.14 1024.12 1023.05 1021.88
1039.86 1038.98 1037.96 1037.37 1037.08 1037.38 1037.95 1039.22 1040.74 1042.90 1044.98 1044.12 1040.44 1037.68 1035.64 1035.01 1034.91 1034.78 1034.75 1034.76 1034.79 1034.56 1034.30 1033.87 1033.32 1032.90 1032.64 1032.43 1032.08 1031.65 1031.15 1030.68 1030.18 1029.61 1029.02 1028.37 1027.81 1027.24 1026.60 1025.84 1025.16 1024.32 1023.30 1022.12
1040.79 1040.40 1039.17 1038.27 1037.66 1037.92 1038.49 1039.84 1041.47 1043.58 1045.58 1045.18 1041.91 1039.40 1036.77 1035.64 1035.13 1034.93 1034.93 1035.06 1034.94 1034.62 1034.33 1033.83 1033.38 1032.92 1032.56 1032.44 1032.15 1031.60 1031.15 1030.81 1030.18 1029.59 1029.11 1028.53 1027.87 1027.17 1026.50 1025.69 1024.94 1024.22 1023.31 1022.23
1041.12 1041.70 1040.85 1039.79 1039.68 1039.59 1039.75 1040.76 1042.66 1044.44 1045.75 1045.78 1043.78 1039.81 1036.73 1035.50 1035.14 1035.06 1035.13 1035.13 1035.03 1034.60 1034.22 1033.70 1033.27 1032.81 1032.59 1032.38 1032.02 1031.62 1031.10 1030.74 1030.24 1029.67 1029.11 1028.46 1027.68 1026.99 1026.28 1025.64 1024.82 1024.12 1023.26 1022.35
1041.64 1042.93 1042.80 1041.73 1041.00 1040.54 1040.73 1041.74 1043.16 1045.27 1046.52 1045.88 1044.51 1039.72 1036.49 1035.74 1035.32 1035.20 1035.26 1034.84 1034.33 1034.05 1033.75 1033.42 1033.06 1032.61 1032.40 1032.07 1031.67 1031.29 1030.78 1030.40 1029.91 1029.47 1028.97 1028.33 1027.67 1026.91 1026.13 1025.40 1024.61 1023.80 1022.99 1022.04
1042.00 1043.37 1043.91 1043.13 1042.51 1041.54 1041.75 1042.12 1043.12 1044.72 1045.58 1045.32 1044.58 1039.67 1036.65 1035.83 1035.27 1034.70 1034.64 1034.24 1033.72 1033.47 1033.19 1032.87 1032.55 1032.32 1032.08 1031.61 1031.33 1031.06 1030.62 1030.12 1029.56 1029.12 1028.69 1028.06 1027.47 1026.81 1026.02 1025.19 1024.40 1023.61 1022.77 1021.77
1042.25 1043.93 1044.39 1044.12 1043.29 1042.84 1042.69 1042.62 1043.14 1044.05 1045.09 1043.91 1041.72 1039.23 1036.66 1036.01 1035.22 1034.74 1034.26 1033.70 1033.26 1032.95 1032.60 1032.41 1032.25 1032.06 1031.60 1031.15 1030.84 1030.47 1030.13 1029.68 1029.25 1028.84 1028.43 1027.89 1027.26 1026.61 1025.89 1025.08 1024.25 1023.44 1022.57 1021.61
1042.84 1044.99 1045.24 1044.66 1044.14 1043.62 1042.73 1042.16 1042.11 1042.52 1042.36 1042.54 1039.70 1038.73 1036.35 1035.77 1035.12 1034.60 1033.94 1033.40 1033.03 1032.60 1032.33 1032.22 1032.13 1031.61 1031.14 1030.61 1030.12 1029.81 1029.52 1029.16 1028.81 1028.53 1028.09 1027.55 1026.98 1026.33 1025.58 1024.77 1024.03 1023.19 1022.30 1021.32
1043.55 1045.09 1046.12 1046.02 1044.88 1043.90 1042.60 1040.69 1040.29 1040.53 1040.66 1040.35 1038.50 1037.32 1035.19 1034.81 1034.49 1034.19 1033.43 1033.08 1032.74 1032.33 1032.07 1031.96 1031.51 1031.09 1030.62 1030.03 1029.49 1029.13 1028.97 1028.77 1028.53 1028.31 1027.86 1027.31 1026.82 1026.14 1025.38 1024.60 1023.84 1022.98 1022.03 1021.07
1044.04 1045.80 1047.53 1047.12 1046.04 1044.45 1042.00 1038.46 1038.17 1038.27 1037.93 1037.45 1037.02 1034.87 1034.13 1033.96 1033.68 1033.28 1032.84 1032.60 1032.30 1031.90 1031.75 1031.48 1030.96 1030.48 1029.91 1029.35 1028.94 1028.70 1028.49 1028.26 1028.25 1028.08 1027.68 1027.25 1026.78 1026.09 1025.30 1024.52 1023.61 1022.80 1021.88 1020.88
1044.42 1045.86 1047.59 1048.08 1046.95 1044.47 1038.83 1037.24 1036.87 1036.51 1035.91 1035.29 1034.64 1033.98 1033.40 1032.84 1032.49 1032.46 1032.08 1032.03 1031.70 1031.39 1031.17 1030.60 1030.12 1029.73 1029.16 1028.56 1028.32 1028.08 1027.99 1027.91 1027.91 1027.88 1027.67 1027.30 1026.85 1026.10 1025.10 1024.26 1023.53 1022.72 1021.83 1020.64
1043.20 1045.12 1046.82 1047.78 1046.98 1042.78 1038.61 1035.66 1035.69 1035.41 1034.74 1033.53 1033.52 1032.91 1032.35 1031.86 1032.15 1031.84 1031.14 1030.93 1030.73 1030.52 1030.07 1029.74 1029.37 1028.93 1028.54 1028.20 1027.81 1027.81 1027.70 1027.71 1027.77 1027.74 1027.65 1027.32 1026.80 1025.96 1024.89 1024.20 1023.39 1022.58 1021.45 1020.22
1043.61 1044.10 1045.51 1047.00 1046.20 1042.37 1037.07 1034.88 1033.93 1034.07 1032.97 1031.92 1031.77 1031.70 1031.48 1031.36 1031.56 1030.86 1030.08 1029.70 1029.53 1029.46 1029.37 1029.17 1028.71 1028.49 1028.21 1027.72 1027.63 1027.70 1027.66 1027.85 1027.89 1027.81 1027.56 1027.16 1026.67 1025.94 1025.09 1024.27 1023.24 1022.20 1021.22 1019.76
1043.96 1044.15 1043.96 1044.25 1043.27 1039.25 1035.64 1034.45 1033.96 1033.68 1030.89 1030.23 1030.52 1030.51 1030.47 1030.66 1029.75 1028.99 1029.06 1029.09 1028.87 1028.66 1028.64 1028.33 1028.35 1028.29 1027.95 1027.72 1027.67 1027.74 1027.94 1028.10 1028.10 1027.88 1027.44 1026.94 1026.41 1025.76 1024.96 1024.00 1023.12 1021.96 1020.80 1019.73
1041.57 1042.36 1042.48 1042.56 1041.24 1037.10 1032.99 1033.78 1032.96 1029.94 1029.24 1029.40 1029.30 1029.22 1029.19 1028.95 1028.66 1028.50 1028.36 1028.26 1028.20 1028.04 1027.91 1027.85 1028.25 1028.21 1028.04 1027.88 1027.92 1028.10 1028.27 1028.26 1028.03 1027.72 1027.27 1026.80 1026.18 1025.46 1024.58 1023.75 1022.63 1021.73 1020.61 1019.33
1038.94 1037.14 1037.36 1037.24 1034.55 1031.74 1031.20 1029.68 1029.12 1028.68 1028.66 1028.43 1028.68 1028.14 1028.12 1028.14 1027.96 1027.70 1027.53 1027.52 1027.52 1027.58 1027.76 1027.88 1028.35 1028.37 1028.35 1028.47 1028.43 1028.61 1028.55 1028.30 1027.97 1027.68 1027.23 1026.50 1025.79 1025.04 1024.26 1023.46 1022.35 1021.37 1020.35 1019.20
1035.61 1034.68 1034.34 1033.63 1031.16 1029.56 1030.00 1028.99 1028.38 1027.91 1027.86 1027.62 1027.47 1027.33 1027.29 1027.32 1027.14 1026.86 1026.86 1026.73 1026.84 1027.14 1027.61 1028.19 1028.49 1028.70 1028.74 1028.83 1028.77 1028.98 1028.75 1028.42 1028.09 1027.71 1027.10 1026.25 1025.42 1024.61 1023.97 1023.21 1022.29 1021.27 1020.12 1019.10
1032.72 1032.34 1031.31 1030.02 1029.21 1028.29 1027.95 1027.22 1026.66 1026.64 1026.68 1026.71 1026.38 1026.47 1026.48 1026.47 1026.26 1026.22 1026.25 1026.39 1026.84 1027.43 1027.97 1028.51 1028.78 1028.85 1028.97 1028.97 1028.93 1028.94 1028.84 1028.61 1028.25 1027.83 1027.13 1026.24 1025.47 1024.72 1023.72 1022.84 1021.97 1020.87 1019.89 1019.23
1029.74 1028.65 1029.28 1026.91 1026.53 1026.52 1025.62 1025.20 1025.61 1025.72 1025.58 1025.70 1025.89 1025.81 1025.62 1025.84 1025.74 1025.85 1026.23 1026.69 1027.31 1027.90 1028.52 1028.98 1029.21 1029.45 1029.28 1029.20 1029.18 1029.08 1029.02 1028.87 1028.65 1028.01 1027.24 1026.54 1025.71 1024.71 1023.80 1022.64 1021.06 1020.53 1019.42 1018.46
Wind_Speed
11 15 9 7 4 5 6 5 3 3 4 8 11 10 7 7 10 10 9 8 10 12 10 12 13 15 16 18 19 20 19 20 16 15 16 15 14 11 12 12 16 17 17 9
8 16 7 4 7 9 8 4 5 3 5 11 9 9 6 6 7 8 8 8 8 9 11 13 14 14 15 16 17 18 18 18 15 12 12 11 11 8 8 11 14 15 17 16
12 4 5 6 10 8 4 6 4 3 6 8 11 4 4 4 5 7 7 5 6 7 9 11 12 12 13 15 15 15 16 16 15 16 11 11 10 10 11 14 14 17 19 17
9 6 6 7 6 3 2 4 2 3 3 4 3 2 4 4 3 5 5 6 6 6 6 7 8 11 11 10 12 13 14 15 15 16 14 15 12 14 12 13 13 14 18 19
1 5 7 7 4 5 5 9 2 2 3 4 6 5 2 4 2 3 5 6 6 7 7 7 7 7 7 7 8 10 13 14 15 15 15 12 12 11 11 11 17 16 15 17
4 3 4 4 5 3 9 3 6 5 3 5 5 5 4 5 5 3 2 4 4 5 6 5 5 6 6 7 8 8 11 13 14 14 15 15 15 15 14 16 14 13 13 12
6 4 5 4 5 7 10 7 5 7 7 5 2 4 7 5 4 5 2 2 5 5 5 6 6 6 6 7 7 9 11 12 12 13 14 14 14 14 14 14 13 18 14 13
5 6 8 9 3 3 5 4 6 4 2 6 7 4 4 6 6 4 1 2 5 6 6 7 7 6 6 7 7 7 9 10 12 12 13 11 12 9 10 11 12 11 12 13
4 1 4 3 3 2 6 7 4 8 1 5 4 5 2 3 3 1 3 5 7 8 8 8 8 6 7 7 8 7 8 9 10 11 11 13 12 12 12 14 12 10 13 14
2 3 2 5 4 5 6 1 4 5 3 5 5 5 6 7 6 3 3 6 7 7 9 9 8 7 5 5 6 7 7 8 9 10 11 11 12 12 12 12 14 14 15 16
3 4 4 1 5 1 5 3 6 5 4 6 2 8 7 7 6 6 3 5 8 8 8 9 7 6 6 6 6 7 7 7 8 9 11 12 13 13 12 11 13 14 15 16
1 5 1 2 6 4 1 3 4 7 6 2 3 10 3 1 3 0 7 14 15 9 7 7 7 6 6 7 7 7 7 7 6 6 10 11 12 13 13 13 14 15 16 16
3 2 4 7 7 5 1 2 4 5 4 6 6 9 2 6 6 14 14 15 16 12 10 7 7 7 7 7 6 7 7 7 7 7 9 11 12 12 15 15 14 15 16 16
6 2 7 8 6 4 2 3 3 7 4 4 10 9 20 18 19 16 17 17 16 12 9 7 7 8 7 7 7 7 7 7 7 7 9 10 12 13 13 15 15 15 15 16
6 4 1 5 6 4 9 14 13 12 10 7 15 15 19 16 16 16 17 16 14 9 7 7 7 7 7 8 8 7 7 7 6 7 10 11 12 13 13 14 15 15 15 15
3 3 3 6 4 5 13 19 17 16 16 16 23 24 24 21 15 10 14 11 10 10 7 8 8 8 9 11 10 7 7 7 5 7 10 10 12 13 14 15 15 15 16 16
6 5 4 7 4 6 9 11 14 6 7 8 9 13 7 7 10 11 10 10 12 10 9 9 9 9 10 10 9 8 7 5 5 6 9 10 11 14 14 14 15 15 16 16
6 6 3 5 4 1 8 3 6 12 7 15 12 13 15 15 12 8 10 9 11 8 10 10 8 9 9 8 7 7 6 5 4 6 9 9 11 13 14 15 15 15 14 16
5 5 1 2 4 8 11 7 8 10 10 20 16 16 17 15 2 8 10 8 12 11 12 11 9 10 7 8 9 6 6 3 3 5 6 9 11 13 14 15 15 14 14 15
3 3 5 2 3 9 7 3 3 4 10 13 13 15 13 5 5 9 9 8 11 11 9 10 11 7 6 9 6 5 4 3 4 4 8 10 10 12 14 14 14 12 13 15
4 4 15 10 8 11 14 7 2 5 13 6 8 12 11 8 11 12 5 9 8 9 11 8 7 7 8 6 5 3 3 4 5 7 7 8 10 12 13 14 12 12 14 15
10 10 6 2 3 13 11 6 10 13 3 6 7 9 12 12 12 13 12 13 12 10 10 8 4 6 5 4 3 3 3 4 6 7 8 9 10 9 10 13 12 11 12 12
3 11 10 15 13 6 9 10 15 8 8 11 4 11 9 10 11 16 12 11 11 9 7 2 1 4 3 3 4 6 6 7 8 8 8 9 11 10 10 12 12 10 9 10
7 6 6 2 12 23 12 17 15 15 16 17 15 16 14 14 15 16 14 10 7 4 3 1 3 3 4 2 2 2 6 7 8 9 10 9 10 11 10 8 8 9 9 9
9 8 11 17 20 22 19 20 22 21 17 15 16 15 15 15 15 14 12 8 4 3 1 2 3 4 4 5 5 4 7 8 8 8 9 10 8 10 11 10 9 9 9 10
10 16 10 17 20 15 21 21 15 12 16 13 11 12 13 12 13 9 7 3 2 1 2 3 3 4 5 5 6 5 4 5 6 10 8 8 9 8 9 10 11 14 19 20
Wind_Direction
25 60 34 334 342 94 100 84 53 356 51 75 96 96 79 60 62 57 46 38 38 32 21 22 22 19 19 18 15 14 10 6 6 2 359 355 352 344 343 347 340 339 337 249
42 48 330 351 32 66 51 64 2 295 344 101 109 91 78 65 64 58 48 40 34 25 24 23 23 20 20 15 13 13 11 8 9 3 358 350 342 344 336 340 341 344 335 326
74 312 318 40 34 25 46 82 329 237 6 67 119 115 104 64 65 61 43 27 17 18 14 16 18 16 14 14 8 8 6 7 9 4 353 353 351 353 349 350 343 340 340 329
69 336 25 31 59 358 311 102 268 266 81 169 148 241 202 147 80 48 30 21 8 7 358 7 11 15 13 6 4 3 2 3 4 1 2 4 0 353 346 336 333 335 337 336
73 5 11 33 342 330 267 322 213 180 95 70 342 74 260 178 63 32 23 13 8 6 357 355 358 356 355 354 357 356 359 1 0 0 2 358 354 345 339 338 337 337 336 339
75 1 46 305 296 312 296 18 44 53 64 36 259 117 232 202 176 142 25 352 352 0 347 346 342 346 343 346 353 353 2 356 355 357 356 355 349 342 341 344 341 339 334 334
346 20 338 18 359 346 15 43 357 2 11 212 25 36 241 165 179 138 140 349 354 357 351 347 354 350 340 345 343 349 353 350 350 349 351 350 343 340 338 338 336 335 334 333
35 352 12 335 59 297 357 93 135 199 313 288 335 260 286 185 119 120 112 12 1 332 321 317 326 333 327 336 341 338 341 338 343 341 342 338 341 336 332 332 328 328 328 326
48 316 329 10 354 60 313 41 145 103 71 33 274 289 313 188 136 51 350 360 327 313 311 307 315 324 318 336 334 332 333 330 332 330 334 333 336 332 328 327 325 325 324 324
198 30 2 311 354 18 82 104 42 9 57 304 293 275 244 223 222 247 316 325 304 307 307 299 307 308 309 313 310 322 329 318 315 319 329 326 325 325 323 322 323 324 320 322
107 95 291 27 28 312 352 35 58 110 125 167 287 269 217 214 211 224 266 295 284 288 289 286 288 294 300 300 313 308 317 313 312 320 322 321 321 320 320 318 319 320 318 319
140 141 227 208 294 268 135 170 108 115 273 222 157 270 293 73 259 306 297 302 302 290 290 276 277 294 290 278 292 301 307 307 300 290 312 312 314 316 318 317 317 319 316 315
209 327 9 349 355 351 122 198 119 102 70 218 138 262 252 285 274 312 310 301 300 297 289 269 295 292 275 284 284 291 295 290 292 300 309 308 312 315 316 315 315 316 315 313
94 133 170 195 197 136 260 228 155 128 135 205 227 274 280 294 293 299 300 296 296 292 260 269 286 279 277 281 282 285 285 281 288 298 304 307 310 311 311 310 313 313 312 309
117 188 200 259 249 211 245 254 239 211 224 200 272 260 270 274 281 285 286 290 294 276 270 287 281 282 288 282 273 267 274 281 283 292 305 306 308 309 309 310 312 311 311 308
156 261 85 302 330 268 261 257 246 242 246 246 252 268 265 269 277 271 277 288 281 261 271 266 272 278 283 285 275 266 265 272 284 293 302 308 312 312 313 313 311 311 311 311
152 129 77 269 345 341 300 243 222 180 199 189 208 240 273 261 266 275 273 285 281 259 243 256 258 266 275 279 269 271 268 271 281 289 304 312 313 312 313 308 311 311 313 311
134 111 120 253 18 323 247 251 189 208 221 226 254 262 262 262 252 262 261 248 265 247 256 260 258 268 270 269 276 266 261 264 272 288 305 310 311 308 306 308 308 309 309 312
151 135 292 178 200 304 283 270 173 183 243 245 250 257 260 261 298 271 250 238 240 236 249 254 260 262 266 275 275 269 273 272 266 281 287 307 306 301 310 306 306 309 308 307
92 119 161 81 196 231 241 226 141 109 279 230 234 250 254 253 250 253 257 242 250 246 244 258 278 273 269 273 284 268 278 305 292 291 301 301 298 303 302 299 302 300 301 301
132 190 221 222 248 278 249 233 107 103 258 191 201 228 239 216 231 252 269 262 253 245 259 266 264 261 268 296 282 273 310 300 300 300 297 296 303 298 294 294 298 301 306 307
165 156 197 124 204 277 207 107 186 221 262 248 240 233 231 237 251 262 263 259 267 262 276 277 279 287 312 343 353 319 316 303 304 303 300 300 299 294 294 294 299 301 301 302
257 190 182 196 205 229 193 210 220 246 250 265 223 261 241 253 265 279 272 252 251 250 260 313 311 310 335 18 28 335 316 320 315 309 300 300 299 295 297 301 300 303 300 299
247 171 231 164 221 252 221 249 252 251 249 262 257 262 274 265 268 267 273 262 248 227 184 137 326 304 305 355 17 269 304 322 317 307 306 305 303 305 302 297 293 295 296 307
202 152 226 252 260 273 268 256 259 267 261 255 258 257 253 254 257 257 260 257 215 182 126 353 306 308 306 323 326 318 330 329 317 310 306 304 303 305 302 294 292 289 289 290
203 228 220 253 258 245 265 273 271 246 258 257 244 259 250 231 253 251 246 186 183 304 352 299 306 304 295 317 309 310 324 323 323 314 309 307 304 305 300 301 303 294 296 301